Meadville, PA

8:03 AM EDT on April 26, 2017 (GMT -0400)
Port Meadville

Weather History for KGKJ - February, 2012

Change the Weather History Date:

Tuesday, February 14, 2012

  Actual Average Record
Temperature  
Mean Temperature 30 °F -  
Max Temperature 35 °F 33 °F 61 °F (1990)
Min Temperature 26 °F 12 °F -12 °F (1979)
Degree Days  
Heating Degree Days 34    
Moisture  
Dew Point 27 °F    
Average Humidity 86    
Maximum Humidity 96    
Minimum Humidity 65    
Precipitation  
Precipitation 0.12 in - - ()
Sea Level Pressure  
Sea Level Pressure 29.94 in    
Wind  
Wind Speed 6 mph (South)    
Max Wind Speed 13 mph    
Max Gust Speed 21 mph    
Visibility 4 miles    
Events Snow    
Averages and records for this station are not official NWS values.
T = Trace of Precipitation, MM = Missing Value Source: NWS Daily Summary

Daily Weather History Graph

Daily Weather History Graph

Search for Another Location

Airport or City:

Trip Planner

Search our weather history database for the weather conditions in past years. The results will help you decide how hot, cold, wet, or windy it might be!

Date:

Astronomy

Feb. 14, 2012 Rise Set
Actual Time 7:18 AM EST 5:52 PM EST
Civil Twilight 6:49 AM EST 6:21 PM EST
Nautical Twilight 6:17 AM EST 6:53 PM EST
Astronomical Twilight 5:44 AM EST 7:25 PM EST
Moon 1:03 AM EST (2/14) 10:54 AM EST (2/14)
Length of Visible Light 11h 31m
Length of Day
10h 34m
Waning Gibbous, 50% of the Moon is Illuminated
Feb 14
Waning Gibbous
Feb 14
Last Quarter
Feb 21
New
Feb 29
First Quarter
Mar 8
Full

Hourly Weather History & Observations

Time (EST) Temp. Windchill Dew Point Humidity Pressure Visibility Wind Dir Wind Speed Gust Speed Precip Events Conditions
12:53 AM 28.0 °F 17.5 °F 18.0 °F 66% 30.04 in 10.0 mi SSW 12.7 mph 20.7 mph N/A   Overcast
1:53 AM 27.0 °F 23.0 °F 21.0 °F 78% 30.03 in 10.0 mi Variable 3.5 mph - 0.00 in   Overcast
2:53 AM 28.0 °F - 19.0 °F 69% 30.00 in 10.0 mi Calm Calm - N/A   Partly Cloudy
3:53 AM 28.0 °F 24.2 °F 19.0 °F 69% 29.99 in 10.0 mi Variable 3.5 mph - N/A   Mostly Cloudy
4:53 AM 28.0 °F 21.7 °F 19.9 °F 72% 29.99 in 4.0 mi South 5.8 mph - 0.00 in Snow Light Snow
5:09 AM 28.4 °F 21.2 °F 21.2 °F 74% 29.95 in 2.5 mi South 6.9 mph - 0.00 in Snow Light Snow
5:16 AM 26.6 °F 19.1 °F 23.0 °F 86% 29.95 in 1.8 mi South 6.9 mph - 0.00 in Snow Light Snow
5:53 AM 27.0 °F 20.5 °F 25.0 °F 92% 29.99 in 1.0 mi South 5.8 mph - 0.00 in Snow Light Snow
6:03 AM 26.6 °F 20.0 °F 24.8 °F 93% 29.94 in 1.0 mi South 5.8 mph - 0.00 in Snow Light Snow
6:10 AM 26.6 °F 21.2 °F 24.8 °F 93% 29.94 in 1.2 mi South 4.6 mph - 0.00 in Snow Light Snow
6:26 AM 26.6 °F 22.6 °F 24.8 °F 93% 29.94 in 3.0 mi South 3.5 mph - 0.00 in Snow Light Snow
6:38 AM 26.6 °F 20.0 °F 24.8 °F 93% 29.94 in 1.8 mi Variable 5.8 mph - 0.00 in Snow Light Snow
6:49 AM 26.6 °F 22.6 °F 24.8 °F 93% 29.94 in 2.5 mi Variable 3.5 mph - 0.00 in Snow Light Snow
7:00 AM 26.6 °F 21.2 °F 24.8 °F 93% 29.94 in 3.0 mi South 4.6 mph - 0.00 in Snow Light Snow
7:05 AM 26.6 °F 21.2 °F 24.8 °F 93% 29.94 in 2.5 mi Variable 4.6 mph - 0.00 in Snow Light Snow
7:21 AM 26.6 °F 22.6 °F 24.8 °F 93% 29.94 in 1.8 mi Variable 3.5 mph - 0.00 in Snow Light Snow
7:41 AM 26.6 °F 22.6 °F 24.8 °F 93% 29.94 in 1.8 mi SSE 3.5 mph - 0.00 in Snow Light Snow
7:53 AM 27.0 °F 23.0 °F 25.0 °F 92% 29.99 in 2.5 mi Variable 3.5 mph - 0.00 in Snow Light Snow
8:01 AM 26.6 °F 21.2 °F 24.8 °F 93% 29.94 in 4.0 mi Variable 4.6 mph - 0.00 in Snow Light Snow
8:19 AM 28.4 °F 24.6 °F 24.8 °F 86% 29.94 in 2.0 mi Variable 3.5 mph - 0.00 in Snow Light Snow
8:31 AM 28.4 °F 23.3 °F 24.8 °F 86% 29.94 in 5.0 mi SSE 4.6 mph - 0.00 in Snow Light Snow
8:48 AM 28.4 °F 24.6 °F 24.8 °F 86% 29.94 in 4.0 mi Variable 3.5 mph - 0.00 in Snow Light Snow
8:53 AM 28.0 °F 22.8 °F 25.0 °F 88% 29.99 in 7.0 mi SSE 4.6 mph - 0.00 in   Overcast
9:10 AM 28.4 °F - 24.8 °F 86% 29.94 in 2.5 mi Calm Calm - 0.00 in Snow Light Snow
9:21 AM 28.4 °F 23.3 °F 26.6 °F 93% 29.93 in 1.2 mi Variable 4.6 mph - 0.01 in Snow Light Snow
9:38 AM 30.2 °F 26.7 °F 26.6 °F 86% 29.93 in 2.0 mi Variable 3.5 mph - 0.01 in Snow Light Snow
9:53 AM 30.0 °F 26.5 °F 27.0 °F 88% 29.97 in 3.0 mi Variable 3.5 mph - 0.03 in Snow Light Snow
10:12 AM 30.2 °F 25.4 °F 26.6 °F 86% 29.92 in 2.5 mi Variable 4.6 mph - 0.03 in Snow Light Snow
10:20 AM 30.2 °F 24.3 °F 26.6 °F 86% 29.92 in 3.0 mi South 5.8 mph - 0.03 in Snow Light Snow
10:29 AM 30.2 °F - 26.6 °F 86% 29.91 in 9.0 mi Calm Calm - 0.04 in   Overcast
10:53 AM 32.0 °F 27.5 °F 27.0 °F 82% 29.95 in 9.0 mi SSW 4.6 mph - 0.04 in   Overcast
11:53 AM 33.1 °F 30.0 °F 26.1 °F 75% 29.94 in 10.0 mi Variable 3.5 mph - N/A   Overcast
12:53 PM 35.1 °F 31.0 °F 26.1 °F 70% 29.91 in 10.0 mi Variable 4.6 mph - N/A   Overcast
1:53 PM 35.1 °F 27.4 °F 25.0 °F 67% 29.90 in 10.0 mi SSW 10.4 mph - N/A   Overcast
2:00 PM 35.6 °F 27.5 °F 24.8 °F 65% 29.86 in 10.0 mi South 11.5 mph - N/A   Overcast
2:53 PM 34.0 °F 28.0 °F 27.0 °F 75% 29.91 in 4.0 mi SSW 6.9 mph - 0.00 in Snow Light Snow
3:07 PM 33.8 °F 26.4 °F 26.6 °F 75% 29.87 in 2.5 mi SSW 9.2 mph - 0.00 in Snow Light Snow
3:29 PM 33.8 °F 28.6 °F 28.4 °F 81% 29.88 in 1.8 mi South 5.8 mph - 0.00 in Snow Light Snow
3:44 PM 33.8 °F 29.6 °F 28.4 °F 81% 29.87 in 1.5 mi South 4.6 mph - 0.00 in Snow Light Snow
3:53 PM 33.1 °F 26.9 °F 28.9 °F 85% 29.92 in 1.5 mi South 6.9 mph - 0.01 in Snow Light Snow
4:10 PM 32.0 °F 26.4 °F 28.4 °F 87% 29.88 in 2.5 mi SSW 5.8 mph - 0.00 in Snow Light Snow
4:18 PM 32.0 °F 28.7 °F 28.4 °F 87% 29.88 in 1.8 mi South 3.5 mph - 0.00 in Snow Light Snow
4:36 PM 32.0 °F 26.4 °F 30.2 °F 93% 29.88 in 1.5 mi South 5.8 mph - 0.00 in Snow Light Snow
4:53 PM 32.0 °F 27.5 °F 30.0 °F 92% 29.93 in 1.2 mi South 4.6 mph - 0.00 in Snow Light Snow
5:53 PM 32.0 °F 27.5 °F 30.9 °F 96% 29.94 in 2.0 mi South 4.6 mph - 0.01 in Snow Light Snow
6:09 PM 32.0 °F 27.5 °F 30.2 °F 93% 29.90 in 3.0 mi South 4.6 mph - 0.01 in Snow Light Snow
6:28 PM 32.0 °F 26.4 °F 30.2 °F 93% 29.91 in 2.5 mi South 5.8 mph - 0.01 in Snow Light Snow
6:53 PM 32.0 °F 27.5 °F 30.9 °F 96% 29.96 in 2.5 mi South 4.6 mph - 0.01 in Snow Light Snow
7:53 PM 32.0 °F 26.4 °F 30.9 °F 96% 29.98 in 2.5 mi South 5.8 mph - 0.00 in Snow Light Snow
8:02 PM 32.0 °F 26.4 °F 30.2 °F 93% 29.93 in 2.5 mi South 5.8 mph - 0.01 in Snow Light Snow
8:48 PM 33.8 °F 29.6 °F 30.2 °F 87% 29.94 in 3.0 mi South 4.6 mph - 0.01 in Snow Light Snow
8:53 PM 33.1 °F 28.7 °F 30.9 °F 92% 29.99 in 3.0 mi South 4.6 mph - 0.01 in Snow Light Snow
9:00 PM 33.8 °F 29.6 °F 30.2 °F 87% 29.95 in 2.5 mi South 4.6 mph - 0.00 in Snow Light Snow
9:35 PM 33.8 °F 27.7 °F 30.2 °F 87% 29.96 in 3.0 mi SSW 6.9 mph - 0.00 in Snow Light Snow
9:53 PM 33.1 °F 26.1 °F 30.9 °F 92% 30.00 in 3.0 mi SSW 8.1 mph - 0.00 in Snow Light Snow
10:35 PM 33.8 °F 28.6 °F 30.2 °F 87% 29.97 in 2.5 mi SW 5.8 mph - N/A   Overcast
10:53 PM 33.1 °F - 30.9 °F 92% 30.01 in 2.5 mi Calm Calm - N/A   Overcast
11:02 PM 33.8 °F 28.6 °F 30.2 °F 87% 29.97 in 3.0 mi SW 5.8 mph - 0.01 in   Overcast
11:53 PM 32.0 °F 26.4 °F 30.9 °F 96% 30.03 in 3.0 mi WSW 5.8 mph - 0.01 in   Overcast